Probability
0 0 0 0 0 0 0 0 0 0 0 0 0 0 0 0 0 0 0 0 0 0 0 0 0 0 0 0 0 0 0 3 3 3 3 3 3 3 3 0 0 0 0 0
0 0 0 0 0 0 0 0 0 0 0 0 0 0 0 0 0 0 0 0 0 0 0 0 0 0 0 0 0 0 0 0 0 3 3 3 3 3 3 3 3 3 0 0
0 0 0 0 0 0 0 0 0 0 0 0 0 0 0 0 0 0 0 0 0 0 0 0 0 0 0 0 0 0 0 0 0 0 0 3 3 3 3 3 3 3 3 3
0 0 0 0 0 0 0 0 0 0 0 0 0 0 0 0 0 0 0 0 0 0 0 0 0 0 0 0 0 0 0 0 0 0 0 0 3 3 3 3 3 3 3 3
0 0 0 0 0 0 0 0 0 0 0 0 0 0 0 0 0 0 0 0 0 0 0 0 0 0 0 0 0 0 0 0 0 0 0 0 0 0 3 3 3 3 3 3
0 0 0 0 0 0 0 0 0 0 0 0 0 0 0 0 0 0 0 0 0 0 0 0 0 0 0 0 0 0 0 0 0 0 0 0 0 0 0 0 3 3 3 3
0 0 0 0 0 0 0 0 0 0 0 0 0 0 0 0 0 0 0 0 0 0 0 0 0 0 0 0 0 0 0 0 0 0 0 0 0 0 0 0 0 3 3 3
0 0 0 0 0 0 0 0 0 0 0 0 0 0 0 0 0 0 0 0 0 0 0 0 0 0 0 0 0 0 0 0 0 0 0 0 0 0 0 0 3 3 3 3
0 0 0 0 0 0 0 0 0 0 0 0 0 0 0 0 0 0 0 0 0 0 0 0 0 0 0 0 0 0 0 0 0 0 0 0 0 0 0 3 3 3 3 3
0 0 0 0 0 0 0 0 0 0 0 0 0 0 0 0 0 0 0 0 0 0 0 0 0 0 0 0 0 0 0 0 0 0 0 0 0 0 0 0 3 3 3 3
0 0 0 0 0 0 0 0 0 0 0 0 0 0 0 0 0 0 0 0 0 0 0 0 0 0 0 0 0 0 0 0 0 0 0 0 0 0 0 0 3 0 0 0
0 0 0 0 0 0 0 0 0 0 0 0 0 0 0 0 0 0 0 0 0 0 0 0 0 0 0 0 0 0 0 0 0 0 0 0 0 0 0 0 0 0 0 0
0 0 0 0 0 0 0 0 0 0 0 0 0 0 0 0 0 0 0 0 0 0 0 0 0 0 0 0 0 0 0 0 0 0 0 0 0 0 0 0 0 0 0 0
0 0 0 0 0 0 0 0 0 0 0 0 0 0 0 0 0 0 0 0 0 0 0 0 0 0 0 0 0 0 0 0 0 0 0 0 0 0 0 0 0 0 0 0
0 0 0 0 0 0 0 0 0 0 0 0 0 0 0 0 0 0 0 0 0 0 0 0 0 0 0 0 0 0 0 0 0 0 0 0 0 0 0 0 0 0 0 0
0 0 0 0 0 0 0 0 0 0 0 0 0 0 0 0 0 0 0 0 0 0 0 0 0 0 0 0 0 0 0 0 0 0 0 0 0 0 0 0 0 0 0 0
0 0 0 0 0 0 0 0 0 0 0 0 0 0 0 0 0 0 0 0 0 0 0 0 0 0 0 0 0 0 0 0 0 0 0 0 0 0 0 0 0 0 0 0
0 0 0 0 0 0 0 0 0 0 0 0 0 0 0 0 0 0 0 0 0 0 0 0 0 0 0 0 0 0 0 0 0 0 0 0 0 0 0 0 0 0 0 0
0 0 0 0 0 0 0 0 0 0 0 0 0 0 0 0 0 0 0 0 0 0 0 0 0 0 0 0 0 0 0 0 0 0 0 0 0 0 0 0 0 0 0 0
0 0 0 0 0 0 0 0 0 0 0 0 0 0 0 0 0 0 0 0 0 0 0 0 0 0 0 0 0 0 0 0 0 0 0 0 0 0 0 0 0 0 0 0
0 0 0 0 0 0 0 0 0 0 0 0 0 0 0 0 0 0 0 0 0 0 0 0 0 0 0 0 0 0 0 0 0 0 0 0 0 0 0 0 0 0 0 0
0 0 0 0 0 0 0 0 0 0 0 0 0 0 0 0 0 0 0 0 0 0 0 0 0 0 0 0 0 0 0 0 0 0 0 0 0 0 0 0 0 0 0 0
0 0 0 0 0 0 0 0 0 0 0 0 0 0 0 0 0 0 0 0 0 0 0 0 0 0 0 0 0 0 0 0 0 0 0 0 0 0 0 0 0 0 0 0
0 0 0 0 0 0 0 0 0 0 0 0 0 0 0 0 0 0 0 0 0 0 0 0 0 0 0 0 0 0 0 0 0 0 0 0 0 0 0 0 0 0 0 0
0 0 0 0 0 0 0 0 0 0 0 0 0 0 0 0 0 0 0 0 0 0 0 0 0 0 0 0 0 0 0 0 0 0 0 0 0 0 0 0 0 0 0 0
0 0 0 0 0 0 0 0 0 0 0 0 0 0 0 0 0 0 0 0 0 0 0 0 0 0 0 0 0 0 0 0 0 0 0 0 0 0 0 0 0 0 0 0
0 0 0 0 0 0 0 0 0 0 0 0 0 0 0 0 0 0 0 0 0 0 0 0 0 0 0 0 0 0 0 0 0 0 0 0 0 0 0 0 0 0 0 0
Height
5835 5835 5835 5836 5836 5836 5836 5836 5837 5837 5836 5836 5834 5833 5833 5832 5831 5830 5829 5827 5826 5825 5824 5823 5822 5820 5819 5818 5817 5816 5814 5813 5812 5811 5809 5808 5807 5806 5805 5804 5804 5803 5803 5802
5830 5830 5830 5831 5831 5831 5831 5831 5831 5831 5832 5831 5829 5829 5828 5827 5826 5825 5824 5823 5822 5821 5820 5818 5817 5816 5815 5814 5812 5811 5810 5808 5807 5805 5804 5803 5802 5801 5800 5800 5799 5798 5798 5797
5824 5825 5825 5826 5827 5826 5826 5826 5826 5826 5827 5826 5825 5824 5823 5823 5822 5820 5819 5818 5817 5816 5815 5813 5812 5811 5810 5809 5807 5806 5804 5803 5801 5800 5798 5797 5796 5796 5795 5794 5794 5793 5793 5792
5818 5819 5819 5824 5822 5821 5821 5821 5821 5820 5820 5820 5820 5819 5818 5817 5816 5815 5814 5813 5812 5811 5809 5808 5807 5806 5804 5803 5802 5800 5799 5797 5796 5794 5793 5792 5790 5790 5789 5788 5788 5787 5787 5786
5812 5812 5813 5816 5816 5815 5815 5815 5815 5815 5814 5814 5814 5813 5813 5812 5810 5810 5808 5807 5806 5805 5804 5803 5801 5800 5798 5797 5796 5794 5793 5791 5790 5788 5787 5786 5785 5784 5783 5782 5782 5781 5781 5780
5805 5805 5807 5810 5810 5809 5810 5809 5810 5809 5808 5808 5808 5808 5808 5806 5805 5804 5803 5802 5800 5799 5798 5797 5795 5794 5792 5791 5789 5788 5787 5785 5783 5782 5781 5779 5778 5777 5776 5776 5775 5775 5774 5774
5797 5797 5799 5802 5802 5802 5804 5804 5803 5802 5801 5801 5801 5801 5801 5800 5798 5798 5797 5796 5794 5793 5792 5790 5789 5787 5785 5784 5783 5781 5780 5778 5777 5775 5774 5773 5771 5770 5770 5769 5768 5767 5767 5766
5790 5790 5794 5793 5794 5795 5795 5795 5795 5795 5794 5794 5794 5794 5793 5793 5792 5791 5790 5789 5788 5787 5785 5784 5782 5780 5779 5777 5776 5774 5773 5771 5770 5768 5767 5766 5764 5763 5762 5761 5760 5759 5759 5758
5782 5785 5784 5784 5785 5785 5786 5786 5786 5787 5787 5787 5786 5786 5786 5785 5785 5784 5783 5782 5781 5780 5779 5777 5776 5774 5772 5771 5769 5767 5766 5764 5763 5761 5760 5758 5757 5756 5754 5753 5752 5751 5751 5750
5772 5774 5775 5775 5775 5776 5777 5777 5778 5778 5778 5778 5778 5778 5778 5778 5777 5776 5776 5775 5774 5773 5772 5770 5769 5767 5766 5764 5762 5760 5759 5757 5756 5754 5752 5751 5749 5748 5746 5745 5744 5743 5742 5741
5762 5765 5765 5766 5766 5767 5767 5768 5769 5769 5769 5769 5769 5769 5769 5769 5769 5768 5767 5767 5766 5765 5764 5763 5761 5760 5758 5757 5755 5753 5752 5750 5748 5746 5744 5743 5741 5739 5738 5736 5735 5733 5733 5732
5753 5755 5755 5756 5757 5757 5758 5759 5760 5760 5760 5760 5760 5760 5760 5760 5759 5759 5758 5758 5757 5756 5755 5754 5753 5752 5751 5749 5747 5745 5744 5742 5740 5738 5737 5735 5733 5731 5729 5728 5726 5724 5723 5723
5742 5743 5744 5746 5747 5747 5748 5749 5749 5750 5750 5750 5750 5750 5750 5750 5750 5749 5749 5748 5748 5747 5746 5745 5744 5743 5742 5740 5739 5737 5735 5734 5732 5730 5728 5726 5725 5723 5721 5720 5718 5716 5715 5715
5730 5731 5733 5735 5736 5736 5737 5738 5738 5739 5739 5739 5739 5739 5739 5739 5739 5739 5739 5738 5738 5738 5737 5736 5735 5734 5733 5731 5730 5728 5727 5725 5723 5721 5719 5717 5716 5714 5713 5711 5710 5708 5707 5706
5719 5720 5722 5723 5725 5725 5726 5727 5727 5728 5728 5728 5728 5728 5729 5728 5728 5728 5728 5728 5728 5728 5727 5726 5725 5724 5723 5722 5720 5719 5717 5715 5714 5712 5710 5708 5707 5705 5704 5703 5701 5700 5699 5698
5707 5708 5710 5712 5713 5714 5715 5715 5716 5717 5717 5717 5717 5717 5718 5718 5718 5718 5718 5718 5717 5717 5717 5716 5715 5714 5713 5712 5711 5709 5708 5706 5704 5702 5701 5699 5697 5696 5695 5694 5692 5691 5690 5688
5696 5698 5699 5701 5702 5703 5704 5704 5705 5705 5706 5706 5706 5706 5706 5706 5707 5707 5707 5707 5706 5706 5706 5705 5705 5704 5703 5702 5700 5699 5698 5696 5695 5693 5692 5690 5688 5687 5685 5684 5683 5681 5680 5678
5685 5687 5688 5689 5690 5691 5692 5693 5693 5694 5694 5694 5694 5694 5695 5695 5696 5696 5696 5696 5695 5695 5695 5695 5694 5693 5692 5691 5690 5689 5687 5686 5685 5683 5682 5680 5679 5677 5675 5674 5673 5671 5670 5668
5674 5676 5677 5678 5679 5680 5681 5681 5682 5682 5682 5682 5682 5683 5683 5684 5684 5684 5684 5684 5684 5684 5684 5683 5683 5682 5682 5681 5680 5678 5677 5675 5674 5673 5672 5670 5669 5667 5665 5664 5662 5661 5659 5657
5664 5665 5667 5667 5668 5669 5669 5670 5670 5671 5671 5671 5671 5672 5672 5673 5673 5673 5673 5673 5673 5673 5672 5672 5671 5671 5671 5670 5669 5668 5666 5665 5663 5662 5661 5659 5658 5656 5654 5653 5651 5650 5648 5646
5654 5655 5656 5656 5657 5657 5658 5658 5659 5659 5659 5660 5660 5661 5661 5661 5662 5662 5662 5663 5663 5662 5661 5660 5660 5660 5659 5658 5657 5656 5655 5654 5652 5651 5649 5648 5646 5645 5643 5641 5640 5638 5637 5635
5644 5644 5645 5645 5646 5646 5646 5647 5647 5647 5648 5648 5649 5649 5650 5650 5650 5651 5651 5651 5651 5650 5649 5649 5649 5648 5647 5647 5646 5645 5643 5642 5641 5639 5637 5636 5634 5633 5631 5629 5628 5626 5625 5623
5633 5633 5634 5634 5634 5634 5635 5635 5635 5636 5636 5637 5637 5638 5639 5639 5639 5639 5640 5640 5639 5638 5638 5637 5637 5636 5635 5634 5634 5633 5632 5630 5629 5627 5625 5624 5622 5620 5619 5617 5616 5614 5612 5610
5623 5623 5623 5623 5623 5624 5624 5624 5624 5624 5625 5625 5626 5627 5627 5628 5628 5628 5628 5628 5628 5627 5626 5626 5625 5624 5623 5622 5621 5620 5619 5618 5617 5615 5613 5612 5610 5608 5606 5605 5603 5601 5599 5597
5612 5613 5613 5613 5613 5613 5613 5613 5613 5613 5614 5614 5615 5615 5616 5616 5617 5617 5617 5616 5616 5615 5614 5613 5612 5611 5610 5610 5609 5608 5607 5606 5605 5603 5602 5600 5598 5596 5594 5592 5590 5588 5586 5584
5602 5602 5602 5602 5602 5602 5602 5602 5602 5602 5602 5603 5604 5604 5604 5605 5605 5605 5604 5604 5604 5603 5602 5601 5600 5599 5598 5597 5596 5595 5594 5593 5592 5591 5589 5588 5586 5584 5582 5580 5578 5576 5574 5571
5592 5592 5592 5592 5592 5592 5591 5591 5591 5591 5591 5592 5592 5593 5593 5593 5593 5593 5593 5592 5592 5591 5590 5589 5588 5587 5586 5585 5584 5583 5582 5581 5580 5578 5577 5575 5573 5571 5569 5567 5565 5563 5561 5559
Wind_Speed
18 17 18 18 17 17 17 17 17 16 16 16 16 16 16 16 16 17 16 16 16 16 16 15 16 16 16 16 16 16 16 16 16 16 16 17 17 16 16 16 16 16 16 17
20 19 19 19 17 18 18 17 17 17 16 16 17 17 17 17 17 17 17 16 16 16 16 16 16 16 17 16 17 17 17 17 17 17 17 17 17 17 17 16 17 17 17 17
21 20 21 20 18 18 18 18 18 18 17 17 18 18 18 18 17 17 17 17 17 17 17 18 18 18 18 18 18 18 18 18 18 18 18 18 18 18 17 17 18 18 18 18
22 22 22 18 18 19 19 19 19 19 19 19 19 19 19 19 19 19 18 18 18 17 17 18 18 19 19 19 19 19 19 19 20 19 19 19 19 19 19 19 19 18 18 19
24 24 23 20 19 20 21 20 20 20 21 21 21 20 20 20 20 20 20 19 19 19 19 19 20 21 20 20 20 20 21 21 20 20 20 20 20 20 20 20 20 20 19 20
25 25 25 23 21 21 22 21 20 21 21 22 21 21 21 21 21 21 21 21 21 21 21 21 21 21 21 21 21 21 21 21 21 21 21 21 21 21 21 21 21 21 21 21
27 27 26 25 23 22 23 22 22 22 22 22 22 22 22 21 21 21 21 21 21 21 22 22 22 22 22 22 22 22 22 22 22 22 22 22 22 22 22 22 23 23 23 23
29 29 28 26 25 25 24 24 24 24 24 24 23 23 23 23 23 22 22 22 22 22 22 22 22 22 22 22 22 22 22 22 23 23 23 23 23 23 23 23 23 23 24 24
31 30 29 28 28 27 26 26 25 25 25 25 25 24 24 24 24 24 23 23 23 23 23 23 24 24 23 23 23 23 23 23 23 24 24 24 24 24 25 25 24 24 24 25
32 31 30 30 30 29 29 28 27 27 27 27 26 26 26 25 25 26 25 25 24 24 24 24 25 25 25 24 24 24 24 24 24 25 25 26 26 26 26 26 26 26 26 26
32 32 31 31 31 31 31 30 29 29 28 28 28 27 27 26 27 27 27 26 26 25 25 25 25 25 25 25 25 25 25 25 25 25 26 26 26 26 26 26 26 26 26 27
33 32 33 33 32 32 31 31 30 30 30 30 29 29 29 29 28 28 28 27 27 27 27 27 27 26 26 26 25 25 25 25 25 26 26 26 26 25 25 25 26 26 26 26
35 35 35 34 33 33 33 32 32 31 31 31 31 31 31 30 30 29 28 28 28 28 28 28 28 28 27 27 27 27 27 26 27 27 27 26 26 26 26 26 25 25 25 26
36 36 36 35 35 34 34 34 33 32 32 32 32 32 32 31 31 30 29 28 28 29 29 29 29 29 29 29 29 29 29 29 28 28 28 27 28 27 27 26 26 26 26 26
36 36 36 35 35 34 34 34 34 33 33 33 33 32 32 31 31 30 29 29 30 30 30 30 31 31 31 31 30 30 30 30 30 29 29 29 28 27 27 27 27 27 27 27
36 36 35 35 34 34 34 34 34 34 33 34 34 33 32 32 32 31 31 30 31 31 31 32 32 31 31 31 31 31 31 30 30 29 29 28 28 28 28 28 28 29 29 29
35 35 35 35 34 34 34 34 34 34 34 34 34 34 33 32 33 33 32 32 32 32 32 32 32 32 32 31 31 31 31 30 30 30 29 29 29 29 30 30 30 30 30 31
35 34 34 34 35 34 34 34 34 34 34 35 35 35 34 34 34 34 33 33 32 32 32 33 34 33 32 32 32 31 31 31 31 31 30 30 30 30 30 30 31 31 31 31
33 33 33 33 33 34 34 34 34 34 34 35 35 35 34 34 33 33 33 33 33 33 33 33 33 34 33 32 32 32 32 32 32 31 30 31 31 31 31 31 32 32 32 33
33 33 33 33 33 34 34 34 34 33 34 34 34 34 33 33 33 33 33 33 33 33 34 34 34 34 35 35 34 34 34 33 32 32 32 32 32 33 33 33 32 33 33 34
32 33 33 33 34 34 34 34 33 33 33 34 33 33 33 33 33 33 33 32 32 33 34 34 34 35 35 35 34 34 34 34 33 33 33 33 33 34 34 34 34 34 34 35
31 32 33 34 34 34 35 35 34 34 33 33 33 33 33 33 33 33 33 32 33 34 34 34 35 35 35 35 35 35 34 34 34 34 34 34 34 34 35 35 35 35 36 36
31 31 32 32 33 33 33 34 34 33 33 33 33 33 33 33 33 33 33 33 33 34 34 34 35 35 35 36 35 35 35 35 35 34 34 35 35 35 35 36 36 36 37 38
30 31 31 31 31 31 32 32 33 33 33 33 33 34 33 33 33 33 33 34 34 34 35 35 35 35 36 36 35 35 35 35 35 34 34 35 35 36 36 36 36 36 37 38
30 30 31 31 32 32 32 32 32 33 33 33 33 33 34 34 34 34 35 35 35 35 35 35 35 36 36 36 36 35 35 35 35 34 34 35 35 36 36 36 36 37 37 38
29 30 30 31 31 31 31 31 31 31 32 33 33 33 34 34 35 35 35 35 35 35 35 35 35 35 35 36 36 36 36 35 35 35 35 36 36 36 36 36 36 37 37 37
29 29 29 30 30 30 31 31 31 31 32 32 32 33 33 33 34 35 35 35 34 34 34 35 35 35 35 35 36 36 36 36 36 36 36 36 37 37 37 37 37 37 38 38
Wind_Direction
259 259 261 265 266 266 268 269 273 274 275 277 278 280 282 285 288 289 289 289 289 289 289 289 289 287 285 284 284 284 283 283 283 283 281 280 277 275 275 275 273 272 271 272
260 262 264 265 267 268 269 271 274 275 275 273 275 278 281 285 288 288 289 288 288 287 287 287 287 287 285 283 284 285 284 284 284 282 281 279 276 275 275 275 273 272 272 273
262 263 266 266 267 268 270 272 274 275 274 273 275 278 281 283 284 286 285 285 286 285 285 284 284 287 286 284 283 284 284 284 283 282 281 282 279 277 277 275 273 272 272 273
263 264 265 268 269 269 269 269 271 272 272 274 276 278 280 281 282 283 283 283 284 285 284 284 284 285 285 285 284 283 285 286 285 282 282 281 280 278 276 274 273 272 272 274
262 264 268 269 270 270 269 268 269 269 271 273 275 277 278 280 281 282 283 285 285 285 284 283 284 285 284 283 283 283 284 284 284 282 281 280 279 278 277 276 274 273 273 274
262 263 267 269 269 269 270 269 268 269 269 271 274 276 278 280 281 282 283 284 286 286 286 286 287 286 285 285 285 285 284 282 282 282 281 280 279 278 277 275 274 274 273 273
263 264 266 268 268 268 268 269 268 269 270 272 273 274 277 278 280 281 281 283 284 285 286 286 287 287 286 285 285 285 283 282 282 282 282 281 280 280 278 275 273 273 273 273
262 263 266 269 269 268 268 267 268 269 270 272 274 274 275 276 277 280 281 282 283 283 284 284 285 286 286 285 285 284 284 283 282 281 281 280 280 279 278 277 276 274 274 273
260 262 264 267 268 267 267 266 267 269 270 272 272 273 274 275 276 277 279 280 280 280 281 282 284 285 286 285 285 284 285 285 283 281 280 280 280 280 279 277 275 274 274 274
259 260 263 264 266 267 266 265 266 268 269 271 272 272 272 273 274 275 276 278 278 278 279 281 283 284 285 285 284 284 285 285 284 283 281 281 281 281 280 278 277 275 274 274
259 260 262 262 263 264 264 264 265 267 268 270 271 271 272 272 273 273 274 276 277 277 277 279 281 282 283 284 283 283 284 284 284 284 283 282 281 280 280 280 279 278 275 273
259 259 260 261 262 263 264 265 265 266 267 269 270 270 271 271 272 272 272 274 275 275 276 278 279 280 282 283 284 283 283 283 284 283 283 282 282 281 281 281 280 279 277 275
258 258 259 261 262 263 264 266 266 266 267 267 267 268 270 270 271 270 270 271 273 274 275 276 278 279 279 281 283 283 282 282 282 283 283 282 281 279 281 282 282 279 278 277
257 258 260 261 262 263 264 264 265 266 267 268 268 268 269 270 270 269 269 270 270 272 273 275 276 278 278 279 281 282 281 281 281 281 282 282 280 279 280 281 280 279 279 279
257 258 260 261 262 263 264 264 265 266 267 267 267 268 269 269 268 268 269 269 271 272 273 274 275 276 278 279 280 282 282 281 281 281 282 282 280 278 279 279 280 280 279 279
257 258 260 261 261 262 263 264 265 266 266 266 267 267 267 267 267 268 269 270 271 271 272 272 273 275 277 280 281 282 281 281 281 282 282 281 280 279 278 279 280 280 280 280
256 258 260 261 261 262 263 263 264 265 266 266 266 267 267 266 266 267 269 270 270 271 271 270 272 274 276 278 280 281 281 280 280 281 282 281 280 279 278 278 279 280 281 281
257 259 260 261 261 262 263 263 264 265 266 266 266 266 267 266 267 267 268 269 270 270 271 271 271 272 275 277 278 279 280 279 279 279 279 281 281 281 280 279 279 280 282 281
259 261 262 263 263 263 265 265 266 266 267 266 266 265 266 266 266 267 267 269 270 271 271 271 271 271 273 276 277 278 280 280 278 278 279 281 282 282 281 280 280 281 282 282
261 262 264 265 265 265 265 265 266 267 267 267 266 265 266 266 266 267 268 269 271 271 272 272 272 272 274 275 277 278 279 280 279 279 280 281 282 283 282 281 282 283 283 284
262 263 264 266 266 266 265 266 266 267 267 266 265 265 266 266 266 267 268 269 270 271 272 273 273 273 274 275 277 279 280 279 278 279 279 280 282 282 282 281 281 282 283 285
263 264 265 267 268 267 266 267 267 267 266 265 264 264 265 265 266 268 269 270 270 271 272 273 273 274 274 275 277 279 280 280 279 280 280 279 281 281 281 281 281 282 283 285
262 265 267 268 269 268 267 266 266 267 266 264 263 264 265 266 267 268 269 271 272 273 273 273 273 273 274 275 277 278 280 280 280 280 280 280 281 281 281 281 281 282 283 284
262 265 267 267 267 266 266 266 267 266 266 264 263 263 264 266 267 268 269 271 273 274 274 273 273 273 274 276 277 277 279 280 281 280 281 282 282 282 282 282 282 283 284 285
264 265 266 266 266 266 267 267 267 267 265 264 264 264 263 264 266 269 271 272 273 275 275 274 274 274 275 276 276 277 277 279 280 281 281 282 282 283 283 283 284 284 285 286
265 266 267 268 268 267 267 268 268 267 266 265 265 265 264 264 266 268 270 271 273 275 276 275 274 275 276 276 276 276 277 278 280 281 281 282 283 284 285 285 284 284 285 286
265 267 269 270 270 270 269 268 269 268 267 266 266 265 265 265 266 269 270 271 273 275 275 275 275 276 277 277 276 276 277 278 279 280 280 282 283 284 284 285 285 285 285 286